[[{"header":{"parameterUnit":"m.s-1","parameterCategory":1,"la1":30.2991,"la2":30.254,"lo1":-89.0895,"lo2":-89.0444,"dy":0.0017,"dx":0.0017,"nx":28,"ny":28,"refTime":"2024-11-29T09:00:00:Z","depth":0,"parameterNumber":2,"parameterNumberName":"U-component_of_WINDS"},"data":[0,0,0,0,0,0,0,0,0,0,0,0,0,0,0,0,0,0,0,0,0,0,0,0,0,0,0,0,0,0,0,0,0,0,0,0,0,0,0,0,0,0,0,0,0,0,0,0,0,0,0,0,0,0,0,0,0,0,-5.3157,-5.3158,0,-5.3204,-5.3205,-5.3205,-5.3061,-5.3057,-5.3053,-5.3048,-5.3098,-5.3104,-5.3109,0,0,0,0,0,0,0,0,0,0,0,0,0,-5.2944,-5.2948,-5.3157,-5.3158,-5.3158,-5.3204,-5.3205,-5.3205,-5.3062,-5.3057,-5.3051,-5.3046,-5.3096,-5.3103,-5.3109,0,0,0,0,0,0,0,0,0,0,0,0,0,-5.3018,-5.295,-5.3157,-5.3092,-5.3087,-5.3204,-5.3205,-5.3206,-5.3063,-5.3057,-5.305,-5.3044,-5.3094,-5.3102,-5.311,-5.3293,0,0,-5.3135,-5.3139,0,0,0,0,0,0,0,0,-5.3014,-5.3026,-5.3101,-5.3097,-5.3091,-5.312,-5.3148,-5.3235,-5.3065,-5.3072,-5.3048,-5.3041,-5.3111,-5.3117,-5.3141,-5.3295,-5.3297,-5.3136,-5.3141,-5.3144,-5.3147,0,0,0,0,0,0,0,-5.3009,-5.3024,-5.3176,-5.3102,-5.3096,-5.3061,-5.3064,-5.3164,-5.3128,-5.3071,-5.3061,-5.3068,-5.3107,-5.3133,-5.3141,-5.3298,-5.3136,-5.3143,-5.3148,-5.3151,-5.3605,-5.3612,0,0,0,0,0,0,-5.3012,-5.302,-5.3174,-5.3177,-5.3036,-5.307,-5.3074,-5.3118,-5.3127,-5.3122,-5.3074,-5.3061,-5.3123,-5.3131,-5.3142,-5.3357,-5.3144,-5.3152,-5.3157,-5.3598,-5.3606,-5.3614,0,0,0,0,0,0,-5.3008,-5.3028,-5.3172,-5.3096,-5.3112,-5.3081,-5.3131,-5.3122,-5.3148,-5.3129,-5.3122,-5.3107,-5.3118,-5.3131,-5.3256,-5.3357,-5.3156,-5.3163,-5.3589,-5.36,-5.361,-5.3788,0,0,0,0,0,0,-5.3003,-5.3027,-5.3096,-5.3099,-5.3116,-5.3286,-5.3137,-5.3128,-5.3162,-5.3146,-5.3158,-5.3154,-5.3113,-5.3245,-5.3264,-5.3364,-5.3169,-5.358,-5.3594,-5.3607,-5.3773,-5.3804,-5.383,0,0,0,0,0,-5.2996,-5.3144,-5.31,-5.3119,-5.3202,-5.3292,-5.3302,-5.3253,-5.3171,-5.324,-5.3228,-5.3153,-5.3342,-5.3259,-5.328,-5.3384,-5.3574,-5.359,-5.3606,-5.376,-5.3798,-5.3829,0,0,0,0,0,0,-5.3154,-5.3143,-5.3094,-5.3248,-5.3272,-5.3268,-5.3353,-5.3293,-5.3342,-5.3325,-5.3261,-5.3265,-5.3403,-5.3405,-5.3313,-5.3561,-5.3444,-5.3465,-5.3554,-5.359,-5.3617,-5.3614,-5.3176,0,0,0,0,0,-5.3207,-5.3281,-5.3267,-5.3404,-5.3419,-5.3385,-5.3422,-5.3382,-5.3404,-5.3414,-5.341,-5.3436,-5.3501,-5.3545,-5.3603,-5.3772,-5.3773,-5.3854,-5.3882,-5.3905,-5.3925,-5.4015,-5.4051,-5.3667,-5.3667,-5.3667,0,0,-5.3317,-5.332,-5.3371,-5.3436,-5.345,-5.3529,-5.3394,-5.3483,-5.3541,-5.3427,-5.3546,-5.3545,-5.3569,-5.3717,-5.3782,-5.3724,-5.4031,-5.3926,-5.3945,-5.3951,-5.4035,-5.4072,-5.4104,-5.3678,-5.3676,-5.3674,0,0,-5.3558,-5.3567,-5.3683,-5.3699,-5.3722,-5.3698,-5.3726,-5.3731,-5.3726,-5.3844,-5.3761,-5.3829,-5.3941,-5.3962,-5.3988,-5.4237,-5.4171,-5.4258,-5.4406,-5.4495,-5.4525,-5.4551,-5.4642,-5.4675,-5.4277,-5.4277,-5.4277,0,-5.3692,-5.3807,-5.375,-5.3845,-5.3876,-5.3776,-5.3893,-5.3912,-5.3954,-5.3978,-5.3911,-5.4051,-5.406,-5.4213,-5.4273,-5.4297,-5.4327,-5.4257,-5.4525,-5.4551,-5.4575,-5.466,-5.4694,-5.4288,-5.4286,-5.4285,-5.4284,0,-5.3971,-5.4052,-5.4143,-5.4185,-5.4226,-5.4332,-5.4291,-5.434,-5.4296,-5.428,-5.4402,-5.4409,-5.4468,-5.45,-5.4458,-5.4648,-5.461,-5.4536,-5.4417,-5.4623,-5.4702,-5.4734,-5.4303,-5.4299,-5.4296,-5.4293,0,0,-5.4314,-5.4323,-5.4357,-5.4376,-5.4393,-5.4455,-5.4556,-5.4613,-5.4657,-5.4689,-5.4773,-5.4871,-5.4802,-5.4831,-5.479,-5.4868,-5.5066,-5.4783,-5.4783,-5.4837,-5.5276,-5.5334,-5.5373,-5.5022,-5.5028,-5.5032,-5.5275,0,-5.4552,-5.4725,-5.4677,-5.485,-5.4925,-5.4831,-5.4919,-5.494,-5.4928,-5.4989,-5.4975,-5.5046,-5.4949,-5.4966,-5.5038,-5.5027,-5.5154,-5.5008,-5.51,-5.5104,-5.5099,-5.5413,-5.5474,-5.5703,-5.5305,-5.531,-5.5314,0,-5.4853,-5.4897,-5.5078,-5.5084,-5.5113,-5.5194,-5.5242,-5.5302,-5.5324,-5.5309,-5.5342,-5.5286,-5.5386,-5.5266,-5.5404,-5.5306,-5.534,-5.534,-5.5348,-5.5356,-5.5223,-5.5431,-5.5774,-5.5809,-5.5362,-5.5358,-5.5355,0,-5.5087,-5.5191,-5.5313,-5.5331,-5.5341,-5.5399,-5.5406,-5.5421,-5.5459,-5.5501,-5.5525,-5.5579,-5.561,-5.5653,-5.5613,-5.5529,-5.5757,-5.5634,-5.5749,-5.575,-5.5802,-5.58,-5.6157,-5.5823,-5.5822,-5.5822,-5.5821,0,-5.5359,-5.5474,-5.5418,-5.5493,-5.5619,-5.5562,-5.5689,-5.5685,-5.57,-5.5773,-5.5694,-5.5765,-5.5707,-5.5773,-5.5742,-5.5861,-5.5875,-5.5866,-5.5857,-5.5874,-5.5876,-5.5897,-5.5881,-5.5831,-5.5829,-5.5827,-5.5825,0,-5.5642,-5.5609,-5.5736,-5.5735,-5.5737,-5.583,-5.5829,-5.5899,-5.588,-5.5974,-5.5993,-5.5964,-5.6037,-5.6001,-5.6077,-5.6056,-5.6211,-5.6179,-5.6204,-5.6196,-5.6314,-5.6304,-5.6698,-5.6748,-5.6381,-5.6384,-5.6387,0,-5.5818,-5.5905,-5.5913,-5.5956,-5.5968,-5.6039,-5.6077,-5.6024,-5.6067,-5.6098,-5.6165,-5.6231,-5.6282,-5.6403,-5.6389,-5.6447,-5.6418,-5.6552,-5.6426,-5.6441,-5.6421,-5.6417,-5.6426,-5.6578,-5.6582,-5.6586,-5.6588,0,-5.6136,-5.6115,-5.6172,-5.6225,-5.6273,-5.6312,-5.6344,-5.6384,-5.6332,-5.6384,-5.6458,-5.6497,-5.6575,-5.6642,-5.6693,-5.6699,-5.6637,-5.6628,-5.6658,-5.6677,-5.6688,-5.6685,-5.6274,-5.6619,-5.6616,-5.6614,-5.6612,-5.6611,-5.6371,-5.6444,-5.6461,-5.6528,-5.6547,-5.6579,-5.6645,-5.6634,-5.6694,-5.6754,-5.6718,-5.6806,-5.6825,-5.6886,-5.6902,-5.697,-5.6916,-5.696,-5.6971,-5.6983,-5.6999,-5.6677,-5.6979,-5.6978,-5.6977,-5.6976,-5.6975,0,-5.6685,-5.6692,-5.6754,-5.6802,-5.6855,-5.6789,-5.6822,-5.6871,-5.6948,-5.6972,-5.7023,-5.7108,-5.7173,-5.7164,-5.7223,-5.7279,-5.7252,-5.7297,-5.7293,-5.7296,-5.7043,-5.7011,-5.7318,-5.7318,-5.7318,-5.7318,-5.7318,-5.7318,-5.6855,-5.6975,-5.6957,-5.7085,-5.709,-5.7175,-5.7199,-5.7228,-5.7247,-5.7346,-5.7399,-5.7393,-5.7404,-5.7463,-5.752,-5.7516,-5.7542,-5.7598,-5.7584,-5.7348,-5.7314,-5.7281,-5.7252,-5.7604,-5.7604,-5.7831,-5.7833,-5.7835]},{"header":{"parameterUnit":"m.s-1","parameterCategory":1,"la1":30.2991,"la2":30.254,"lo1":-89.0895,"lo2":-89.0444,"dy":0.0017,"dx":0.0017,"nx":28,"ny":28,"refTime":"2024-11-29T09:00:00:Z","depth":0,"parameterNumber":3,"parameterNumberName":"V-component_of_WINDS"},"data":[0,0,0,0,0,0,0,0,0,0,0,0,0,0,0,0,0,0,0,0,0,0,0,0,0,0,0,0,0,0,0,0,0,0,0,0,0,0,0,0,0,0,0,0,0,0,0,0,0,0,0,0,0,0,0,0,0,0,-3.2953,-3.2953,0,-3.2965,-3.2965,-3.2965,-3.2925,-3.2924,-3.2923,-3.2921,-3.2933,-3.2934,-3.2936,0,0,0,0,0,0,0,0,0,0,0,0,0,-3.2895,-3.2896,-3.2953,-3.2953,-3.2953,-3.2965,-3.2965,-3.2965,-3.2925,-3.2924,-3.2922,-3.2921,-3.2932,-3.2934,-3.2936,0,0,0,0,0,0,0,0,0,0,0,0,0,-3.2915,-3.2897,-3.2953,-3.2935,-3.2933,-3.2965,-3.2965,-3.2965,-3.2925,-3.2924,-3.2922,-3.292,-3.2932,-3.2934,-3.2936,-3.2985,0,0,-3.2942,-3.2943,0,0,0,0,0,0,0,0,-3.2914,-3.2917,-3.2937,-3.2936,-3.2935,-3.2942,-3.2948,-3.2972,-3.2926,-3.2929,-3.2921,-3.2919,-3.2937,-3.2939,-3.2945,-3.2986,-3.2986,-3.2943,-3.2944,-3.2945,-3.2945,0,0,0,0,0,0,0,-3.2912,-3.2916,-3.2958,-3.2938,-3.2936,-3.2926,-3.2926,-3.2953,-3.2943,-3.2928,-3.2925,-3.2927,-3.2936,-3.2943,-3.2945,-3.2986,-3.2943,-3.2944,-3.2946,-3.2947,-3.3066,-3.3068,0,0,0,0,0,0,-3.2913,-3.2915,-3.2957,-3.2958,-3.2919,-3.2928,-3.2929,-3.2941,-3.2942,-3.2941,-3.2929,-3.2925,-3.294,-3.2942,-3.2945,-3.3001,-3.2945,-3.2947,-3.2948,-3.3064,-3.3067,-3.3069,0,0,0,0,0,0,-3.2912,-3.2918,-3.2957,-3.2936,-3.294,-3.2931,-3.2945,-3.2942,-3.2949,-3.2943,-3.2941,-3.2938,-3.2939,-3.2942,-3.2975,-3.3001,-3.2948,-3.295,-3.3062,-3.3065,-3.3068,-3.3115,0,0,0,0,0,0,-3.2911,-3.2917,-3.2937,-3.2937,-3.2941,-3.2987,-3.2947,-3.2944,-3.2953,-3.2949,-3.2951,-3.2949,-3.2938,-3.2972,-3.2977,-3.3003,-3.2951,-3.306,-3.3063,-3.3067,-3.3111,-3.3119,-3.3126,0,0,0,0,0,-3.2909,-3.295,-3.2938,-3.2943,-3.2965,-3.2989,-3.2992,-3.2978,-3.2955,-3.2974,-3.297,-3.2949,-3.2998,-3.2976,-3.2981,-3.3008,-3.3058,-3.3062,-3.3066,-3.3108,-3.3118,-3.3126,0,0,0,0,0,0,-3.2954,-3.295,-3.2936,-3.2979,-3.2984,-3.2982,-3.3005,-3.2989,-3.3001,-3.2996,-3.2978,-3.2979,-3.3015,-3.3015,-3.2991,-3.3055,-3.3024,-3.3029,-3.3054,-3.3063,-3.307,-3.3069,-3.2953,0,0,0,0,0,-3.2968,-3.2988,-3.2984,-3.3022,-3.3025,-3.3015,-3.3025,-3.3013,-3.3019,-3.3021,-3.3019,-3.3025,-3.3041,-3.3052,-3.3067,-3.3111,-3.311,-3.3132,-3.314,-3.3146,-3.3151,-3.3173,-3.3182,-3.3083,-3.3083,-3.3082,0,0,-3.2999,-3.2999,-3.3013,-3.303,-3.3034,-3.3054,-3.3017,-3.3041,-3.3055,-3.3024,-3.3055,-3.3054,-3.3059,-3.3097,-3.3114,-3.3098,-3.3178,-3.3151,-3.3156,-3.3158,-3.3178,-3.3187,-3.3196,-3.3085,-3.3085,-3.3084,0,0,-3.3065,-3.3068,-3.3099,-3.3103,-3.3108,-3.31,-3.3108,-3.3108,-3.3106,-3.3136,-3.3113,-3.313,-3.3159,-3.3163,-3.3168,-3.3234,-3.3216,-3.324,-3.3279,-3.33,-3.3308,-3.3315,-3.3337,-3.3346,-3.3245,-3.3245,-3.3245,0,-3.3103,-3.3133,-3.3117,-3.3142,-3.3149,-3.3122,-3.3152,-3.3156,-3.3166,-3.3172,-3.3154,-3.3188,-3.319,-3.3228,-3.3244,-3.325,-3.3257,-3.3239,-3.3308,-3.3315,-3.3321,-3.3342,-3.3351,-3.3248,-3.3247,-3.3247,-3.3247,0,-3.3178,-3.3199,-3.3224,-3.3233,-3.3243,-3.3271,-3.3258,-3.3271,-3.3258,-3.3252,-3.3283,-3.3283,-3.3297,-3.3305,-3.3294,-3.3342,-3.3331,-3.3312,-3.328,-3.3334,-3.3353,-3.3361,-3.3252,-3.3251,-3.325,-3.3249,0,0,-3.3274,-3.3273,-3.3282,-3.3285,-3.3288,-3.3303,-3.3329,-3.3342,-3.3352,-3.336,-3.338,-3.3404,-3.3385,-3.3392,-3.338,-3.3399,-3.3449,-3.3376,-3.3376,-3.3389,-3.3501,-3.3515,-3.3525,-3.3437,-3.3439,-3.344,-3.35,0,-3.3338,-3.3381,-3.3367,-3.3411,-3.3429,-3.3403,-3.3425,-3.3428,-3.3423,-3.3438,-3.3432,-3.3449,-3.3424,-3.3427,-3.3445,-3.344,-3.3471,-3.3435,-3.3455,-3.3456,-3.3454,-3.3535,-3.3551,-3.3608,-3.3508,-3.3509,-3.351,0,-3.3418,-3.3428,-3.3474,-3.3471,-3.3479,-3.3499,-3.3509,-3.3523,-3.3526,-3.3521,-3.3528,-3.3512,-3.3536,-3.3504,-3.3537,-3.3512,-3.3519,-3.3518,-3.352,-3.3521,-3.3486,-3.3537,-3.3625,-3.3634,-3.3522,-3.3521,-3.352,0,-3.3481,-3.3506,-3.3536,-3.354,-3.3538,-3.3553,-3.3553,-3.3554,-3.3563,-3.3571,-3.3576,-3.3588,-3.3594,-3.3603,-3.359,-3.3568,-3.3624,-3.3591,-3.3619,-3.362,-3.3632,-3.3631,-3.3721,-3.3638,-3.3638,-3.3638,-3.3638,0,-3.3554,-3.3583,-3.3564,-3.3583,-3.3613,-3.3596,-3.3627,-3.3624,-3.3625,-3.3642,-3.362,-3.3636,-3.3618,-3.3633,-3.3623,-3.365,-3.3654,-3.365,-3.3646,-3.3651,-3.3651,-3.3655,-3.365,-3.364,-3.3639,-3.3639,-3.3639,0,-3.363,-3.3619,-3.3649,-3.3645,-3.3645,-3.3667,-3.3663,-3.368,-3.3673,-3.3694,-3.3698,-3.3688,-3.3703,-3.3691,-3.3707,-3.37,-3.3736,-3.3728,-3.3735,-3.3732,-3.376,-3.3757,-3.3855,-3.3867,-3.3777,-3.3778,-3.3779,0,-3.3676,-3.3697,-3.3695,-3.3704,-3.3706,-3.3722,-3.3729,-3.3713,-3.3722,-3.3726,-3.3742,-3.3756,-3.3765,-3.3792,-3.3785,-3.3796,-3.3787,-3.3821,-3.3789,-3.3793,-3.3786,-3.3785,-3.3786,-3.3827,-3.3828,-3.3829,-3.383,0,-3.3759,-3.3752,-3.3765,-3.3775,-3.3784,-3.3792,-3.3797,-3.3806,-3.3789,-3.38,-3.3815,-3.3823,-3.3838,-3.3852,-3.3861,-3.386,-3.3842,-3.384,-3.3847,-3.3851,-3.3854,-3.3852,-3.3751,-3.3838,-3.3837,-3.3836,-3.3836,-3.3836,-3.3821,-3.3838,-3.3838,-3.3852,-3.3854,-3.3859,-3.3874,-3.3869,-3.3881,-3.3892,-3.3881,-3.39,-3.3901,-3.3911,-3.3912,-3.3926,-3.3912,-3.3922,-3.3925,-3.3927,-3.3931,-3.3853,-3.3928,-3.3927,-3.3927,-3.3927,-3.3927,0,-3.3902,-3.3901,-3.3913,-3.3921,-3.3932,-3.3913,-3.3918,-3.3928,-3.3944,-3.3947,-3.3956,-3.3973,-3.3986,-3.398,-3.3991,-3.4003,-3.3994,-3.4006,-3.4004,-3.4004,-3.3943,-3.3936,-3.4012,-3.4012,-3.4012,-3.4012,-3.4012,-3.4012,-3.3945,-3.3972,-3.3965,-3.3993,-3.3991,-3.4008,-3.4012,-3.4016,-3.4018,-3.4038,-3.4048,-3.4044,-3.4042,-3.4053,-3.4063,-3.4061,-3.4065,-3.408,-3.4074,-3.4017,-3.4009,-3.4001,-3.3993,-3.4081,-3.4081,-3.4134,-3.4135,-3.4135]}]]